Regional Weather Roundup
Issued by NWS

Home | Current Version | Previous Version | Graphics & Text | Print | Product List | Glossary On
Versions: 1 2 3 4 5 6 7 8 9 10 11 12 13 14 15 16 17 18 19 20 21 22 23 24 25 26 27 28 29 30 31 32 33 34 35 36 37 38 39 40 41 42 43 44 45 46 47 48 49 50
000
ASUS43 KLOT 221300
RWRIL

ILLINOIS REGIONAL WEATHER ROUNDUP
NATIONAL WEATHER SERVICE CHICAGO/ROMEOVILLE IL
800 AM CDT TUE JUL 22 2014

NOTE: "FAIR" INDICATES FEW OR NO CLOUDS BELOW 12,000 FEET WITH NO
SIGNIFICANT WEATHER AND/OR OBSTRUCTIONS TO VISIBILITY.

* THESE STATIONS ARE NOT UNDER NWS QUALITY CONTROL. THEY ALSO MAY NOT
  REPORT WEATHER SUCH AS PRECIPITATION OR FOG.

ILZ001-002-007-009-015-016-024-221400-
NORTHWEST ILLINOIS

CITY           SKY/WX    TMP DP  RH WIND       PRES   REMARKS
MOLINE         MOSUNNY   77  68  73 SW10      29.99R
STERLING*      SUNNY     75  66  73 SW7       29.99F
$$

ILZ003-004-008-010-011-017-018-221400-
NORTH CENTRAL ILLINOIS

CITY           SKY/WX    TMP DP  RH WIND       PRES   REMARKS
ROCKFORD       MOSUNNY   74  66  76 S13       30.00F
FREEPORT*      SUNNY     71  66  85 S12       30.00S
PERU*          SUNNY     73  66  80 S14       30.03F
$$

ILZ005-006-012>014-019>023-221400-
NORTHEAST ILLINOIS

CITY           SKY/WX    TMP DP  RH WIND       PRES   REMARKS
CHICAGO-OHARE  MOSUNNY   76  62  62 S12       30.02F
CHICAGO-MIDWAY SUNNY     76  65  68 S14       30.04F
AURORA         SUNNY     73  65  75 S9        30.04F
LANSING*       SUNNY     71  65  79 S9        30.08F
WAUKEGAN       SUNNY     75  64  68 S16       30.01F
DUPAGE AIRPORT SUNNY     74  65  73 S12       30.03F
WHEELING       SUNNY     76  65  68 S12       30.03F
NORTHERLY ISL    N/A     75  63  66 S6          N/A
$$

LMZ740>746-221400-
SOUTHERN LAKE MICHIGAN

STATION/POSITION SKY/WX   TEMP    WIND        PRES    VSBY  WAVE
                          AIR SEA DIR/SP/G                  HT/PER
                          (F)     (DEG/KT/KT) (MB)    (MI)  (FT/S)
SOUTHERN BUOY              70 68  180/ 12/ 14 1017.4S         1/ 3
WAUKEGAN HARBOR            72     190/ 14/ 14 1017.3F
HARRISON CRIB              72     190/ 13/ 17   N/A
BURNHAM HARBOR             74     200/ 10       N/A
CALUMET HARBOR             72     180/  6/ 10 1016.8F
MICHIGAN CITY              71     160/ 10/ 14   N/A
$$

ILZ025>027-034>036-040-047-049-050-058-095>099-221400-
WEST-CENTRAL ILLINOIS

CITY           SKY/WX    TMP DP  RH WIND       PRES   REMARKS
QUINCY         SUNNY     74  67  78 S13       30.03F
GALESBURG*     SUNNY     73  68  84 S12       30.02S
MACOMB*        SUNNY     73  68  84 S12G18    30.03F
$$

ILZ028>032-037-038-041>044-048-051>054-059>061-221400-
CENTRAL ILLINOIS

CITY           SKY/WX    TMP DP  RH WIND       PRES   REMARKS
PONTIAC        SUNNY     72  68  88 S7        30.06F
DECATUR        SUNNY     74  66  76 S6        30.10S
PEORIA         SUNNY     74  66  76 S13       30.04F
SPRINGFIELD    SUNNY     75  67  76 SW8       30.08S
TAYLORVILLE    NOT AVBL
$$

ILZ033-039-045-046-055>057-062-063-221400-
EAST-CENTRAL ILLINOIS

CITY           SKY/WX    TMP DP  RH WIND       PRES   REMARKS
CHAMPAIGN      SUNNY     70  66  87 SW6       30.11S FOG
MATTOON        SUNNY     72  66  81 SW5       30.11R
$$

ILZ079-100>102-221400-
SOUTHWEST ILLINOIS

CITY           SKY/WX    TMP DP  RH WIND       PRES   REMARKS
ALTON          SUNNY     70  70 100 SE3       30.09F
CAHOKIA*       SUNNY     71  66  84 CALM      30.09S
SPARTA*        SUNNY     72  66  83 SW3       30.11S
$$

ILZ064>066-069>071-074>076-080>082-084>086-088>090-092>094-221400-
SOUTH-CENTRAL ILLINOIS

CITY           SKY/WX    TMP DP  RH WIND       PRES   REMARKS
CARBONDALE     SUNNY     70  66  87 CALM      30.10F FOG
MARION         SUNNY     73  70  88 CALM      30.12S
MT. VERNON     SUNNY     70  64  83 CALM      30.11F
SALEM*         SUNNY     74  68  83 CALM      30.11R
$$

ILZ067-068-072-073-078-083-087-091-221400-
SOUTHEAST ILLINOIS

CITY           SKY/WX    TMP DP  RH WIND       PRES   REMARKS
FLORA*         SUNNY     70  67  90 CALM      30.11S FOG
FAIRFIELD*     SUNNY     73  70  88 CALM      30.09F FOG
HARRISBURG*    SUNNY     69  69 100 CALM      30.11F FOG
ROBINSON*      SUNNY     70  70  99 CALM      30.11F FOG
$$

ABBREVIATIONS USED IN REMARKS
   TC - TEMPERATURE IN CELSIUS
  WCI - WIND CHILL INDEX
   HX - HEAT INDEX
  VSB - VISIBILITY
$$



USA.gov is the U.S. government's official web portal to all federal, state and local government web resources and services.